Location: Newark
(54.6833°N, 25.2833°E)
Time: 10:51:24
(UTC+00:00)

A-11 Canister half - All Passes

Search period start: 21 January 2021 00:00
Search period end: 31 January 2021 00:00
Orbit: 1524 x 1684 km, 47.3° (Epoch: 20 January)

Date Brightness Start Highest point End Pass type
(mag) Time Alt. Az. Time Alt. Az. Time Alt. Az.
21 Jan - 11:38:03 10° SE 11:41:02 12° SE 11:44:02 10° ESE daylight
21 Jan - 13:35:27 10° SSW 13:43:31 34° SE 13:51:49 10° E daylight
21 Jan - 15:38:06 10° WSW 15:47:12 54° S 15:56:37 10° E visible
21 Jan - 17:42:10 10° W 17:51:20 52° SSW 18:00:48 10° ESE visible
21 Jan - 19:46:54 10° W 19:54:57 31° SW 20:03:12 10° SSE visible
22 Jan - 11:17:23 10° SE 11:19:32 11° ESE 11:21:40 10° ESE daylight
22 Jan - 13:13:58 10° SSW 13:21:57 33° SE 13:30:07 10° E daylight
22 Jan - 15:16:30 10° WSW 15:25:34 54° S 15:34:56 10° E visible
22 Jan - 17:20:33 10° W 17:29:43 53° SSW 17:39:10 10° ESE visible
22 Jan - 19:25:14 10° W 19:33:22 32° SW 19:41:42 10° SSE visible
22 Jan - 21:34:46 10° WSW 21:35:51 10° WSW 21:36:58 10° SW visible
23 Jan - 10:57:34 10° SE 10:58:01 10° ESE 10:58:28 10° ESE daylight
23 Jan - 12:52:31 10° SSW 13:00:23 32° SE 13:08:26 10° E daylight
23 Jan - 14:54:56 10° WSW 15:03:57 53° SSE 15:13:17 10° E daylight
23 Jan - 16:58:56 10° W 17:08:05 53° SSW 17:17:32 10° ESE visible
23 Jan - 19:03:35 10° W 19:11:46 33° SW 19:20:11 10° SSE visible
23 Jan - 21:11:59 10° WSW 21:14:19 11° WSW 21:16:41 10° SW visible
24 Jan - 12:31:03 10° SSW 12:38:48 31° SE 12:46:43 10° E daylight
24 Jan - 14:33:22 10° WSW 14:42:21 52° SSE 14:51:37 10° E daylight
24 Jan - 16:37:19 10° W 16:46:27 54° S 16:55:54 10° ESE visible
24 Jan - 18:41:56 10° W 18:50:11 34° SW 18:58:40 10° SSE visible
24 Jan - 20:49:42 10° WSW 20:52:47 12° SW 20:55:55 10° SW visible
25 Jan - 12:09:37 10° SSW 12:17:14 30° SE 12:25:01 10° E daylight
25 Jan - 14:11:47 10° WSW 14:20:44 52° SSE 14:29:57 10° E daylight
25 Jan - 16:15:43 10° W 16:24:50 54° S 16:34:15 10° ESE visible
25 Jan - 18:20:16 10° W 18:28:35 35° SSW 18:37:08 10° SSE visible
25 Jan - 20:27:35 10° WSW 20:31:15 13° SW 20:34:58 10° SSW visible
26 Jan - 11:48:11 10° SSW 11:55:41 28° SE 12:03:19 10° E daylight
26 Jan - 13:50:13 10° SW 13:59:07 51° SSE 14:08:18 10° E daylight
26 Jan - 15:54:06 10° W 16:03:12 55° S 16:12:37 10° ESE visible
26 Jan - 17:58:37 10° W 18:07:00 36° SSW 18:15:36 10° SSE visible
26 Jan - 20:05:35 10° W 20:09:43 13° SW 20:13:54 10° SSW visible
27 Jan - 11:26:45 10° SSW 11:34:07 27° SE 11:41:36 10° E daylight
27 Jan - 13:28:39 10° SW 13:37:31 50° SSE 13:46:38 10° E daylight
27 Jan - 15:32:29 10° W 15:41:35 55° S 15:50:59 10° ESE visible
27 Jan - 17:36:59 10° W 17:45:24 37° SSW 17:54:03 10° SSE visible
27 Jan - 19:43:38 10° W 19:48:11 14° SW 19:52:46 10° SSW visible
28 Jan - 11:05:20 10° S 11:12:34 26° SE 11:19:54 10° E daylight
28 Jan - 13:07:05 10° SW 13:15:54 49° SSE 13:24:58 10° E daylight
28 Jan - 15:10:53 10° W 15:19:57 55° S 15:29:20 10° ESE visible
28 Jan - 17:15:20 10° W 17:23:48 38° SSW 17:32:30 10° SSE visible
28 Jan - 19:21:44 10° W 19:26:38 15° SW 19:31:35 10° SSW visible
29 Jan - 10:43:56 10° S 10:51:01 25° SE 10:58:11 10° E daylight
29 Jan - 12:45:31 10° SW 12:54:18 48° SSE 13:03:19 10° E daylight
29 Jan - 14:49:16 10° W 14:58:20 56° S 15:07:42 10° ESE daylight
29 Jan - 16:53:42 10° W 17:02:12 39° SSW 17:10:57 10° SE visible
29 Jan - 18:59:53 10° W 19:05:05 16° SW 19:10:22 10° SSW visible
30 Jan - 10:22:32 10° S 10:29:28 24° SE 10:36:27 10° E daylight
30 Jan - 12:23:57 10° SW 12:32:42 47° SSE 12:41:39 10° E daylight
30 Jan - 14:27:40 10° WSW 14:36:43 56° S 14:46:03 10° ESE daylight
30 Jan - 16:32:04 10° W 16:40:36 40° SSW 16:49:24 10° SE visible
30 Jan - 18:38:04 10° W 18:43:33 17° SW 18:49:07 10° SSW visible
